Badolato

Bivongi Pazzano, tris al Badolato e bottino pieno [VIDEO]

Vittoria casalinga per il Bivongi Pazzano, che cala il tris al Badolato e si porta così a quota 10 punti. Il match si sblocca al 27' del primo tempo, quando Taverniti porta in vantaggio...

Prima Categoria, le designazioni arbitrali del weekend

Ecco le designazioni arbitrali relative alle gare di Prima Categoria in programma nel weekend: GIRONE C Badolato-Campora:Marco Calabrò di Reggio Calabria Caulonia-Città di Guardavalle: Salvatore Gallella di Catanzaro Città di Lamezia Terme-Bivongi Pazzano: Riccardo Imbrogno di Cosenza Nuova Calimera-Filadelfia Cup: Alessandro Meduri di Reggio Calabria Parghelia-Nicotera:...

Prima Categoria, le designazioni arbitrali del weekend

Ecco le designazioni arbitrali relative alle gare di Prima Categoria in programma nel weekend: GIRONE C Campora-Real Mileto: Antonio La Badessa di Paola Capo Vaticano-Caulonia: Alessandro Russo di Cosenza Città di Guardavalle-Badolato:Annibale Bentivoglio di Reggio Calabria Filadelfia Cup-Parghelia: Marco Bernaudo di Cosenza Nicotera-Vigor: William Monteleone di Locri Real Pizzo-Città di...

Prima Categoria Gir. C, ecco il calendario 2019/2020

La Lnd Calabria ha appena reso noti i calendari del campionato di Prima Categoria Girone C 2019/2020. La stagione prenderà il via ufficialmente il 22 settembre 2019. 1^ Giornata – 22 Settembre 2019 Badolato-Real Mileto Campora-Città di Lamezia Terme Capo...

Prima Categoria, le designazioni arbitrali della quindicesima giornata di ritorno

Ecco le designazioni arbitrali relative alle gare della quindicesima giornata di ritorno di Prima Categoria in programma questo week end: GIRONE C Fronti-Bivongi Pazzano: Marco Calabro' di Reggio Calabria Caulonia-Nuova Valle: Demetrio Andriani di Reggio Calabria Chiaravalle-Badolato: Salvatore Gallella di Catanzaro Girifalco-San Calogero: Mario...
DataCasaRisultatiTrasfertaOra
2020-05-10 15:30:0010/05/20- 15:30:0015:30
2020-05-03 15:30:0003/05/20- 15:30:0015:30
2020-04-26 15:30:0026/04/20- 15:30:0015:30
2020-04-19 15:30:0019/04/20- 15:30:0015:30
2020-03-29 15:30:0029/03/20- 15:30:0015:30
2020-03-22 14:30:0022/03/20- 14:30:0014:30
2020-03-15 14:30:0015/03/20- 14:30:0014:30
2020-03-08 14:30:0008/03/20- 14:30:0014:30
2020-03-01 14:30:0001/03/201 - 5 14:30:0014:30
2020-02-23 14:30:0023/02/203 - 0 14:30:0014:30
2020-02-16 14:30:0016/02/201 - 1 14:30:0014:30
2020-02-09 14:30:0009/02/203 - 1 14:30:0014:30
2020-02-02 14:30:0002/02/201 - 1 14:30:0014:30
2020-01-19 14:30:0019/01/201 - 1 14:30:0014:30
2020-01-12 14:30:0012/01/201 - 1 14:30:0014:30
2019-12-22 14:30:0022/12/190 - 1 14:30:0014:30
2019-12-15 14:30:0015/12/193 - 0 14:30:0014:30
2019-12-08 14:30:0008/12/190 - 0 14:30:0014:30
2019-12-01 14:30:0001/12/193 - 0 14:30:0014:30
2019-11-24 14:30:0024/11/190 - 1 14:30:0014:30
2019-11-16 14:30:0016/11/192 - 1 14:30:0014:30
2019-11-10 14:30:0010/11/191 - 1 14:30:0014:30
2019-11-03 14:30:0003/11/192 - 0 14:30:0014:30
2019-10-27 14:30:0027/10/190 - 2 14:30:0014:30
2019-10-20 15:30:0020/10/192 - 0 15:30:0015:30
2019-10-13 15:30:0013/10/191 - 2 15:30:0015:30
2019-10-06 15:30:0006/10/194 - 0 15:30:0015:30
2019-09-22 15:30:0022/09/193 - 2 15:30:0015:30
2019-05-05 16:00:0005/05/195 - 2 16:00:0016:00
2019-04-28 16:00:0028/04/191 - 2 16:00:0016:00
2019-04-07 16:00:0007/04/193 - 2 16:00:0016:00
2019-03-31 16:00:0031/03/192 - 2 16:00:0016:00
2019-03-24 15:00:0024/03/195 - 0 15:00:0015:00
2019-03-17 15:00:0017/03/191 - 1 15:00:0015:00
2019-03-10 15:00:0010/03/190 - 2 15:00:0015:00
2019-03-03 15:00:0003/03/190 - 1 15:00:0015:00
2019-02-24 14:30:0024/02/191 - 3 14:30:0014:30
2019-02-17 14:30:0017/02/191 - 1 14:30:0014:30
2019-02-10 14:30:0010/02/191 - 2 14:30:0014:30
2019-02-03 14:30:0003/02/193 - 2 14:30:0014:30
2019-01-27 14:30:0027/01/193 - 2 14:30:0014:30
2019-01-20 14:30:0020/01/190 - 3 14:30:0014:30
2019-01-13 14:30:0013/01/190 - 2 14:30:0014:30
2018-12-23 14:30:0023/12/181 - 1 14:30:0014:30
2018-12-16 14:30:0016/12/181 - 2 14:30:0014:30
2018-12-09 14:30:0009/12/180 - 1 14:30:0014:30
2018-12-02 14:30:0002/12/182 - 1 14:30:0014:30
2018-11-25 14:30:0025/11/180 - 2 14:30:0014:30
2018-11-18 14:30:0018/11/182 - 2 14:30:0014:30
2018-11-11 14:30:0011/11/182 - 1 14:30:0014:30
2018-11-04 14:30:0004/11/186 - 1 14:30:0014:30
2018-10-28 14:30:0028/10/181 - 1 14:30:0014:30
2018-10-21 15:30:0021/10/183 - 0 15:30:0015:30
2018-10-14 15:30:0014/10/184 - 1 15:30:0015:30
2018-10-07 15:30:0007/10/186 - 1 15:30:0015:30
2018-09-30 15:30:0030/09/180 - 2 15:30:0015:30
2018-09-23 15:30:0023/09/185 - 0 15:30:0015:30
2018-09-16 15:30:0016/09/183 - 0 15:30:0015:30